Satellite: NOAA-12 Catalog number: 21263 Epoch time: 12291.94996341 Element set: 0590 Inclination: 098.7224 deg RA of node: 313.0007 deg Eccentricity: 0.0013393 Arg of perigee: 201.3512 deg Mean anomaly: 158.7110 deg Mean motion: 14.25524025 rev/day Decay rate: 9.2e-07 rev/day^2 Epoch rev: 11404 Checksum: 255
Satellite: MET-3/5 Catalog number: 21655 Epoch time: 12291.83715914 Element set: 529 Inclination: 082.5563 deg RA of node: 065.5285 deg Eccentricity: 0.0013382 Arg of perigee: 020.9620 deg Mean anomaly: 339.2048 deg Mean motion: 13.17045024 rev/day Decay rate: -3.16e-06 rev/day^2 Epoch rev: 1803 Checksum: 281
Satellite: MET-2/21 Catalog number: 22782 Epoch time: 12291.57947559 Element set: 0557 Inclination: 082.5457 deg RA of node: 295.4035 deg Eccentricity: 0.0022693 Arg of perigee: 165.4850 deg Mean anomaly: 194.6968 deg Mean motion: 13.83690158 rev/day Decay rate: 1.17e-06 rev/day^2 Epoch rev: 96609 Checksum: 355
Satellite: OKEAN-4 Catalog number: 23317 Epoch time: 12291.95956522 Element set: 0071 Inclination: 082.5363 deg RA of node: 276.4029 deg Eccentricity: 0.0019945 Arg of perigee: 311.1817 deg Mean anomaly: 048.7677 deg Mean motion: 14.84014835 rev/day Decay rate: 1.708e-05 rev/day^2 Epoch rev: 97301 Checksum: 315
Satellite: NOAA-14 Catalog number: 23455 Epoch time: 12291.96898983 Element set: 0074 Inclination: 098.8227 deg RA of node: 013.8875 deg Eccentricity: 0.0009220 Arg of perigee: 332.3858 deg Mean anomaly: 027.6821 deg Mean motion: 14.13876093 rev/day Decay rate: 8.7e-07 rev/day^2 Epoch rev: 91814 Checksum: 340
Satellite: NOAA-15 Catalog number: 25338 Epoch time: 12291.78374958 Element set: 0442 Inclination: 098.7023 deg RA of node: 277.6155 deg Eccentricity: 0.0011483 Arg of perigee: 109.4479 deg Mean anomaly: 250.7920 deg Mean motion: 14.25132205 rev/day Decay rate: 2.78e-06 rev/day^2 Epoch rev: 75031 Checksum: 309
Satellite: RESURS Catalog number: 25394 Epoch time: 12291.98864218 Element set: 0223 Inclination: 098.3323 deg RA of node: 273.8395 deg Eccentricity: 0.0000482 Arg of perigee: 213.2203 deg Mean anomaly: 146.8942 deg Mean motion: 14.24302194 rev/day Decay rate: 1.08e-06 rev/day^2 Epoch rev: 74188 Checksum: 293
Satellite: FENGYUN1 Catalog number: 25730 Epoch time: 12292.92630507 Element set: 720 Inclination: 098.8537 deg RA of node: 249.8265 deg Eccentricity: 0.0021396 Arg of perigee: 008.7818 deg Mean anomaly: 351.3715 deg Mean motion: 14.09785140 rev/day Decay rate: 8.38e-06 rev/day^2 Epoch rev: 69204 Checksum: 317
Satellite: OKEAN-0 Catalog number: 25860 Epoch time: 12291.97167112 Element set: 0766 Inclination: 097.9531 deg RA of node: 252.2198 deg Eccentricity: 0.0000826 Arg of perigee: 103.9454 deg Mean anomaly: 256.1847 deg Mean motion: 14.74341570 rev/day Decay rate: 6.29e-06 rev/day^2 Epoch rev: 71266 Checksum: 312
Satellite: NOAA-16 Catalog number: 26536 Epoch time: 12291.55955453 Element set: 0934 Inclination: 099.0811 deg RA of node: 335.4903 deg Eccentricity: 0.0011358 Arg of perigee: 098.9270 deg Mean anomaly: 261.3203 deg Mean motion: 14.12792043 rev/day Decay rate: 5.8e-07 rev/day^2 Epoch rev: 62231 Checksum: 297
Satellite: NOAA-17 Catalog number: 27453 Epoch time: 12291.73487756 Element set: 0876 Inclination: 098.3286 deg RA of node: 312.5365 deg Eccentricity: 0.0012085 Arg of perigee: 152.8994 deg Mean anomaly: 207.2810 deg Mean motion: 14.24495643 rev/day Decay rate: 3.48e-06 rev/day^2 Epoch rev: 53620 Checksum: 330
Satellite: NOAA-18 Catalog number: 28654 Epoch time: 12291.68194299 Element set: 0357 Inclination: 099.0623 deg RA of node: 250.8855 deg Eccentricity: 0.0014280 Arg of perigee: 166.9716 deg Mean anomaly: 193.1827 deg Mean motion: 14.11713403 rev/day Decay rate: 5.6e-07 rev/day^2 Epoch rev: 38184 Checksum: 327
Satellite: NOAA-19 Catalog number: 33591 Epoch time: 12291.71740423 Element set: 0545 Inclination: 098.8747 deg RA of node: 230.0424 deg Eccentricity: 0.0014731 Arg of perigee: 037.7847 deg Mean anomaly: 322.4351 deg Mean motion: 14.11400589 rev/day Decay rate: 2.3e-07 rev/day^2 Epoch rev: 19029 Checksum: 288
/EX SB KEPS @ AMSAT $ORB12292.M Orbital Elements 12292.MISC
HR AMSAT ORBITAL ELEMENTS FOR MANNED AND MISCELLANEOUS SATELLITES FROM WA5QGD FORT WORTH,TX October 18, 2012 BID: ORB12292.M TO ALL RADIO AMATEURS BT
Satellite: HUBBLE Catalog number: 20580 Epoch time: 12291.06346532 Element set: 90 Inclination: 028.4693 deg RA of node: 065.7616 deg Eccentricity: 0.0002980 Arg of perigee: 273.8185 deg Mean anomaly: 086.2044 deg Mean motion: 15.02902827 rev/day Decay rate: 2.576e-05 rev/day^2 Epoch rev: 3307 Checksum: 285
Satellite: ISS Catalog number: 25544 Epoch time: 12292.89012777 Element set: 488 Inclination: 051.6475 deg RA of node: 226.8342 deg Eccentricity: 0.0016982 Arg of perigee: 183.8981 deg Mean anomaly: 282.3110 deg Mean motion: 15.50730892 rev/day Decay rate: 5.528e-05 rev/day^2 Epoch rev: 79723 Checksum: 329
Satellite: CO-58 Catalog number: 28895 Epoch time: 12292.65845158 Element set: 305 Inclination: 097.8952 deg RA of node: 153.3905 deg Eccentricity: 0.0018643 Arg of perigee: 120.9798 deg Mean anomaly: 239.3270 deg Mean motion: 14.60793747 rev/day Decay rate: 9.65e-06 rev/day^2 Epoch rev: 37168 Checksum: 364
Satellite: FALCON Catalog number: 30776 Epoch time: 12291.93857158 Element set: 0479 Inclination: 035.4328 deg RA of node: 246.5887 deg Eccentricity: 0.0002424 Arg of perigee: 336.1583 deg Mean anomaly: 023.9037 deg Mean motion: 15.08504499 rev/day Decay rate: 4.965e-05 rev/day^2 Epoch rev: 30879 Checksum: 338
Satellite: MAST Catalog number: 31126 Epoch time: 12291.97291231 Element set: 0588 Inclination: 097.8753 deg RA of node: 295.9073 deg Eccentricity: 0.0094848 Arg of perigee: 087.9136 deg Mean anomaly: 273.2927 deg Mean motion: 14.54289129 rev/day Decay rate: 6.27e-06 rev/day^2 Epoch rev: 29211 Checksum: 340
Satellite: CAPE1 Catalog number: 31130 Epoch time: 12291.00834100 Element set: 0595 Inclination: 097.8879 deg RA of node: 291.3290 deg Eccentricity: 0.0102446 Arg of perigee: 104.6260 deg Mean anomaly: 256.6319 deg Mean motion: 14.53109575 rev/day Decay rate: 1.156e-05 rev/day^2 Epoch rev: 29146 Checksum: 284
Satellite: COMPASS Catalog number: 32787 Epoch time: 12292.84567883 Element set: 440 Inclination: 097.7862 deg RA of node: 351.3835 deg Eccentricity: 0.0015653 Arg of perigee: 020.1712 deg Mean anomaly: 340.0096 deg Mean motion: 14.84490194 rev/day Decay rate: 2.379e-05 rev/day^2 Epoch rev: 24215 Checksum: 309
Satellite: AAUSAT2 Catalog number: 32788 Epoch time: 12292.85436023 Element set: 431 Inclination: 097.7854 deg RA of node: 351.8464 deg Eccentricity: 0.0014960 Arg of perigee: 022.6224 deg Mean anomaly: 337.5656 deg Mean motion: 14.84855687 rev/day Decay rate: 3.018e-05 rev/day^2 Epoch rev: 24218 Checksum: 322
Satellite: DO-64 Catalog number: 32789 Epoch time: 12292.22651187 Element set: 448 Inclination: 097.8015 deg RA of node: 353.7586 deg Eccentricity: 0.0014815 Arg of perigee: 017.7802 deg Mean anomaly: 342.3871 deg Mean motion: 14.86688412 rev/day Decay rate: 5.247e-05 rev/day^2 Epoch rev: 24215 Checksum: 331
Satellite: CO-66 Catalog number: 32791 Epoch time: 12292.81977483 Element set: 429 Inclination: 097.7847 deg RA of node: 350.9946 deg Eccentricity: 0.0015586 Arg of perigee: 021.8592 deg Mean anomaly: 338.3256 deg Mean motion: 14.83821225 rev/day Decay rate: 2.353e-05 rev/day^2 Epoch rev: 24207 Checksum: 345
Satellite: RS-30 Catalog number: 32953 Epoch time: 12292.83902328 Element set: 243 Inclination: 082.5027 deg RA of node: 218.2379 deg Eccentricity: 0.0020247 Arg of perigee: 040.0676 deg Mean anomaly: 320.1894 deg Mean motion: 12.43028733 rev/day Decay rate: 1.0e-07 rev/day^2 Epoch rev: 19992 Checksum: 281
Satellite: PHARMSAT Catalog number: 35002 Epoch time: 12226.86484473 Element set: 78 Inclination: 040.4341 deg RA of node: 050.6671 deg Eccentricity: 0.0012079 Arg of perigee: 300.9773 deg Mean anomaly: 059.0492 deg Mean motion: 16.39309245 rev/day Decay rate: 7.728342e-02 rev/day^2 Epoch rev: 18355 Checksum: 302
Satellite: METEOR-M Catalog number: 35865 Epoch time: 12292.78901014 Element set: 881 Inclination: 098.6398 deg RA of node: 344.7018 deg Eccentricity: 0.0003368 Arg of perigee: 059.3072 deg Mean anomaly: 300.8431 deg Mean motion: 14.21871501 rev/day Decay rate: -6.0e-08 rev/day^2 Epoch rev: 16016 Checksum: 288
Satellite: RS-38 Catalog number: 35869 Epoch time: 12292.86182784 Element set: 865 Inclination: 098.6359 deg RA of node: 344.7483 deg Eccentricity: 0.0005577 Arg of perigee: 058.4699 deg Mean anomaly: 301.7014 deg Mean motion: 14.22092577 rev/day Decay rate: 4.5e-07 rev/day^2 Epoch rev: 16019 Checksum: 351
Satellite: JUGNU Catalog number: 37839 Epoch time: 12291.49169616 Element set: 248 Inclination: 019.9597 deg RA of node: 337.2787 deg Eccentricity: 0.0019467 Arg of perigee: 128.8967 deg Mean anomaly: 231.3170 deg Mean motion: 14.12091639 rev/day Decay rate: 6.20e-06 rev/day^2 Epoch rev: 5255 Checksum: 333
Satellite: SRMSAT Catalog number: 37841 Epoch time: 12292.42042611 Element set: 252 Inclination: 019.9693 deg RA of node: 338.9479 deg Eccentricity: 0.0011538 Arg of perigee: 104.6624 deg Mean anomaly: 255.5119 deg Mean motion: 14.10170623 rev/day Decay rate: 2.64e-06 rev/day^2 Epoch rev: 5260 Checksum: 276
Satellite: RAX-2 Catalog number: 37853 Epoch time: 12292.52316799 Element set: 316 Inclination: 101.7038 deg RA of node: 028.9041 deg Eccentricity: 0.0243516 Arg of perigee: 358.9253 deg Mean anomaly: 001.1392 deg Mean motion: 14.81096615 rev/day Decay rate: 4.762e-05 rev/day^2 Epoch rev: 5264 Checksum: 298
